• In Portugal
  • List of Countries
  • For 7 days
  • Water Temperature
  • Satellite Maps
  • Weather Map
  • Weather Widgets
  • user-avatar
    Login

    Hourly Weather Dalandzadgad

    Today, 18 September, Tuesday

    Time Temperature Precipitation Wind Pressure Humidity
    00:00 +14°C° 0 mm 6 mps 637 mmHg 20%
    01:00 +14°C° 0 mm 6 mps 637 mmHg 20%
    02:00 +13°C° 0 mm 5 mps 637 mmHg 21%
    03:00 +13°C° 0 mm 5 mps 637 mmHg 21%
    04:00 +12°C° 0 mm 5 mps 637 mmHg 21%
    05:00 +12°C° 0 mm 5 mps 637 mmHg 22%
    06:00 +13°C° 0 mm 5 mps 637 mmHg 23%
    07:00 +11°C° 0 mm 6 mps 637 mmHg 25%
    08:00 +14°C° 0 mm 6 mps 638 mmHg 24%
    09:00 +16°C° 0 mm 7 mps 638 mmHg 22%
    10:00 +18°C° 0 mm 8 mps 638 mmHg 21%
    11:00 +18°C° 0 mm 8 mps 638 mmHg 20%
    12:00 +20°C° 0 mm 8 mps 638 mmHg 18%
    13:00 +21°C° 0 mm 9 mps 638 mmHg 17%
    14:00 +21°C° 0 mm 8 mps 638 mmHg 17%
    15:00 +22°C° 0 mm 8 mps 637 mmHg 17%
    16:00 +22°C° 0 mm 8 mps 637 mmHg 16%
    17:00 +21°C° 0 mm 7 mps 637 mmHg 17%
    18:00 +20°C° 0 mm 6 mps 637 mmHg 18%
    19:00 +20°C° 0 mm 5 mps 637 mmHg 19%
    20:00 +19°C° 0 mm 5 mps 637 mmHg 20%
    21:00 +19°C° 0 mm 5 mps 637 mmHg 21%
    22:00 +17°C° 0 mm 5 mps 637 mmHg 22%
    23:00 +16°C° 0 mm 5 mps 636 mmHg 23%

    Tomorrow, 19 September, Wednesday

    Time Temperature Precipitation Wind Pressure Humidity
    00:00 +16°C° 0 mm 5 mps 636 mmHg 24%
    01:00 +15°C° 0 mm 5 mps 636 mmHg 25%
    02:00 +15°C° 0 mm 6 mps 635 mmHg 27%
    03:00 +15°C° 0 mm 6 mps 635 mmHg 28%
    04:00 +14°C° 0 mm 6 mps 635 mmHg 30%
    05:00 +14°C° 0 mm 6 mps 635 mmHg 30%
    06:00 +15°C° 0 mm 7 mps 635 mmHg 29%
    07:00 +15°C° 0 mm 7 mps 635 mmHg 29%
    08:00 +16°C° 0 mm 7 mps 635 mmHg 26%
    09:00 +18°C° 0 mm 8 mps 635 mmHg 23%
    10:00 +19°C° 0 mm 9 mps 636 mmHg 20%
    11:00 +19°C° 0 mm 10 mps 635 mmHg 21%
    12:00 +19°C° 0 mm 11 mps 635 mmHg 21%
    13:00 +19°C° 0 mm 12 mps 635 mmHg 22%
    14:00 +19°C° 0 mm 13 mps 634 mmHg 19%
    15:00 +18°C° 0 mm 14 mps 634 mmHg 17%
    16:00 +17°C° 0 mm 14 mps 634 mmHg 15%
    17:00 +15°C° 0 mm 13 mps 634 mmHg 19%
    18:00 +13°C° 0 mm 12 mps 634 mmHg 23%
    19:00 +11°C° 0 mm 11 mps 634 mmHg 27%
    20:00 +9°C° 0 mm 10 mps 635 mmHg 36%
    21:00 +7°C° 0 mm 9 mps 635 mmHg 46%
    22:00 +5°C° 0 mm 8 mps 635 mmHg 55%
    23:00 +4°C° 0 mm 7 mps 635 mmHg 56%

    Day after tomorrow, 20 September, Thursday

    Time Temperature Precipitation Wind Pressure Humidity
    00:00 +4°C° 0 mm 7 mps 635 mmHg 56%
    01:00 +3°C° 0 mm 6 mps 636 mmHg 57%
    02:00 +3°C° 0 mm 6 mps 636 mmHg 57%
    03:00 +2°C° 0 mm 7 mps 636 mmHg 58%
    04:00 +2°C° 0 mm 7 mps 636 mmHg 59%
    05:00 +2°C° 0 mm 7 mps 636 mmHg 60%
    06:00 0°C° 0 mm 7 mps 637 mmHg 60%
    07:00 0°C° 0 mm 7 mps 637 mmHg 60%
    08:00 +2°C° 0 mm 7 mps 638 mmHg 53%
    09:00 +3°C° 0 mm 7 mps 639 mmHg 45%
    10:00 +4°C° 0 mm 7 mps 639 mmHg 37%
    11:00 +5°C° 0 mm 7 mps 639 mmHg 34%
    12:00 +5°C° 0 mm 6 mps 639 mmHg 31%
    13:00 +7°C° 0 mm 6 mps 639 mmHg 27%
    14:00 +7°C° 0 mm 6 mps 639 mmHg 27%
    15:00 +8°C° 0 mm 6 mps 638 mmHg 26%
    16:00 +8°C° 0 mm 6 mps 638 mmHg 26%
    17:00 +7°C° 0 mm 6 mps 638 mmHg 28%
    18:00 +6°C° 0 mm 7 mps 638 mmHg 30%
    19:00 +6°C° 0 mm 7 mps 638 mmHg 33%
    20:00 +6°C° 0 mm 7 mps 638 mmHg 32%
    21:00 +5°C° 0 mm 7 mps 639 mmHg 31%
    22:00 +5°C° 0 mm 6 mps 639 mmHg 30%
    23:00 +4°C° 0 mm 7 mps 639 mmHg 32%

    21 September, Friday

    Time Temperature Precipitation Wind Pressure Humidity
    00:00 +4°C° 0 mm 7 mps 639 mmHg 33%
    01:00 +3°C° 0 mm 7 mps 639 mmHg 35%
    02:00 +3°C° 0 mm 7 mps 639 mmHg 36%
    03:00 +3°C° 0 mm 6 mps 639 mmHg 37%
    04:00 +2°C° 0 mm 6 mps 639 mmHg 38%
    05:00 +3°C° 0 mm 6 mps 639 mmHg 37%
    06:00 +3°C° 0 mm 7 mps 639 mmHg 36%
    07:00 +3°C° 0 mm 7 mps 639 mmHg 35%
    08:00 +4°C° 0 mm 7 mps 640 mmHg 32%
    09:00 +5°C° 0 mm 7 mps 640 mmHg 29%
    10:00 +6°C° 0 mm 7 mps 641 mmHg 26%
    11:00 +8°C° 0 mm 7 mps 641 mmHg 24%
    12:00 +9°C° 0 mm 7 mps 641 mmHg 21%
    13:00 +10°C° 0 mm 6 mps 641 mmHg 19%
    14:00 +10°C° 0 mm 6 mps 640 mmHg 18%
    15:00 +10°C° 0 mm 6 mps 640 mmHg 17%
    16:00 +10°C° 0 mm 6 mps 640 mmHg 16%
    17:00 +10°C° 0 mm 5 mps 640 mmHg 17%
    18:00 +9°C° 0 mm 5 mps 640 mmHg 18%
    19:00 +8°C° 0 mm 4 mps 640 mmHg 19%
    20:00 +8°C° 0 mm 4 mps 640 mmHg 20%
    21:00 +9°C° 0 mm 3 mps 640 mmHg 21%
    22:00 +8°C° 0 mm 3 mps 640 mmHg 23%
    23:00 +8°C° 0 mm 3 mps 640 mmHg 24%

    22 September, Saturday

    Time Temperature Precipitation Wind Pressure Humidity
    00:00 +7°C° 0 mm 3 mps 640 mmHg 26%
    01:00 +7°C° 0 mm 3 mps 640 mmHg 28%
    02:00 +5°C° 0 mm 3 mps 640 mmHg 30%
    03:00 +5°C° 0 mm 3 mps 640 mmHg 32%
    04:00 +5°C° 0 mm 3 mps 640 mmHg 35%
    05:00 +5°C° 0 mm 3 mps 641 mmHg 35%
    06:00 +5°C° 0 mm 3 mps 641 mmHg 36%
    07:00 +5°C° 0 mm 3 mps 642 mmHg 36%
    08:00 +6°C° 0 mm 4 mps 642 mmHg 34%
    09:00 +7°C° 0 mm 4 mps 642 mmHg 32%
    10:00 +8°C° 0 mm 4 mps 643 mmHg 30%
    11:00 +8°C° 0 mm 4 mps 643 mmHg 28%
    12:00 +10°C° 0 mm 4 mps 643 mmHg 26%
    13:00 +11°C° 0 mm 4 mps 643 mmHg 24%
    14:00 +11°C° 0 mm 4 mps 642 mmHg 23%
    15:00 +12°C° 0 mm 4 mps 642 mmHg 22%
    16:00 +12°C° 0 mm 4 mps 642 mmHg 22%
    17:00 +11°C° 0 mm 4 mps 642 mmHg 23%
    18:00 +11°C° 0 mm 4 mps 642 mmHg 25%
    19:00 +10°C° 0 mm 4 mps 642 mmHg 26%
    20:00 +10°C° 0 mm 3 mps 642 mmHg 27%
    21:00 +9°C° 0 mm 3 mps 642 mmHg 29%
    22:00 +9°C° 0 mm 2 mps 642 mmHg 30%
    23:00 +8°C° 0 mm 2 mps 642 mmHg 31%

    23 September, Sunday

    Time Temperature Precipitation Wind Pressure Humidity
    00:00 +9°C° 0 mm 1 mps 642 mmHg 33%
    01:00 +8°C° 0 mm 1 mps 642 mmHg 34%
    02:00 +8°C° 0 mm 1 mps 642 mmHg 34%
    03:00 +8°C° 0 mm 1 mps 642 mmHg 35%
    04:00 +6°C° 0 mm 0 mps 642 mmHg 36%
    05:00 +7°C° 0 mm 0 mps 642 mmHg 34%
    06:00 +7°C° 0 mm 0 mps 642 mmHg 33%
    07:00 +8°C° 0 mm 0 mps 643 mmHg 32%
    08:00 +9°C° 0 mm 0 mps 643 mmHg 29%
    09:00 +10°C° 0 mm 0 mps 643 mmHg 27%
    10:00 +12°C° 0 mm 1 mps 643 mmHg 24%
    11:00 +13°C° 0 mm 1 mps 643 mmHg 23%
    12:00 +14°C° 0 mm 1 mps 643 mmHg 21%
    13:00 +14°C° 0 mm 1 mps 643 mmHg 20%
    14:00 +15°C° 0 mm 1 mps 642 mmHg 19%
    15:00 +15°C° 0 mm 1 mps 642 mmHg 18%
    16:00 +16°C° 0 mm 1 mps 642 mmHg 17%
    17:00 +16°C° 0 mm 1 mps 642 mmHg 18%
    18:00 +15°C° 0 mm 1 mps 642 mmHg 18%
    19:00 +15°C° 0 mm 1 mps 642 mmHg 19%
    20:00 +14°C° 0 mm 2 mps 641 mmHg 20%
    21:00 +14°C° 0 mm 2 mps 641 mmHg 20%
    22:00 +13°C° 0 mm 2 mps 641 mmHg 21%
    23:00 +12°C° 0 mm 3 mps 641 mmHg 22%
    Show more